Time,TemperatureF,DewpointF,PressureIn,WindDirection,WindDirectionDegrees,WindSpeedMPH,WindSpeedGustMPH,Humidity,HourlyPrecipIn,Conditions,Clouds,dailyrainin,SoftwareType,DateUTC
2013-02-02 00:22:00,51.0,-99.9,-100.00,NNE,13,11.0,-999.0,-999,-99.99,,,-99.99,,2013-02-02 08:22:00,
2013-02-02 00:32:00,51.0,-99.9,-100.00,NNE,13,11.0,-999.0,-999,-99.99,,,-99.99,,2013-02-02 08:32:00,
2013-02-02 00:42:00,51.0,-99.9,-100.00,NNE,13,11.0,-999.0,-999,-99.99,,,-99.99,,2013-02-02 08:42:00,
2013-02-02 00:53:00,51.0,-99.9,-100.00,NNE,13,11.0,-999.0,-999,-99.99,,,-99.99,,2013-02-02 08:53:00,
2013-02-02 01:22:00,51.0,-99.9,-100.00,North,7,13.0,-999.0,-999,-99.99,,,-99.99,,2013-02-02 09:22:00,
2013-02-02 01:32:00,51.0,-99.9,-100.00,North,7,13.0,-999.0,-999,-99.99,,,-99.99,,2013-02-02 09:32:00,
2013-02-02 01:42:00,51.0,-99.9,-100.00,North,7,13.0,-999.0,-999,-99.99,,,-99.99,,2013-02-02 09:42:00,
2013-02-02 01:52:00,51.0,-99.9,-100.00,North,7,13.0,-999.0,-999,-99.99,,,-99.99,,2013-02-02 09:52:00,
2013-02-02 02:22:00,50.0,-99.9,-100.00,North,5,10.0,-999.0,-999,-99.99,,,-99.99,,2013-02-02 10:22:00,
2013-02-02 02:32:00,50.0,-99.9,-100.00,North,5,10.0,-999.0,-999,-99.99,,,-99.99,,2013-02-02 10:32:00,
2013-02-02 02:42:00,50.0,-99.9,-100.00,North,5,10.0,-999.0,-999,-99.99,,,-99.99,,2013-02-02 10:42:00,
2013-02-02 02:52:00,50.0,-99.9,-100.00,North,5,10.0,-999.0,-999,-99.99,,,-99.99,,2013-02-02 10:52:00,
2013-02-02 03:22:00,50.0,-99.9,-100.00,North,355,13.0,-999.0,-999,-99.99,,,-99.99,,2013-02-02 11:22:00,
2013-02-02 03:32:00,50.0,-99.9,-100.00,North,355,13.0,-999.0,-999,-99.99,,,-99.99,,2013-02-02 11:32:00,
2013-02-02 03:42:00,50.0,-99.9,-100.00,North,355,13.0,-999.0,-999,-99.99,,,-99.99,,2013-02-02 11:42:00,
2013-02-02 03:52:00,50.0,-99.9,-100.00,North,355,13.0,-999.0,-999,-99.99,,,-99.99,,2013-02-02 11:52:00,
2013-02-02 04:23:00,50.0,-99.9,-100.00,NNE,14,11.0,-999.0,-999,-99.99,,,-99.99,,2013-02-02 12:23:00,
2013-02-02 04:32:00,50.0,-99.9,-100.00,NNE,14,11.0,-999.0,-999,-99.99,,,-99.99,,2013-02-02 12:32:00,
2013-02-02 04:42:00,50.0,-99.9,-100.00,NNE,14,11.0,-999.0,-999,-99.99,,,-99.99,,2013-02-02 12:42:00,
2013-02-02 04:53:00,50.0,-99.9,-100.00,NNE,14,11.0,-999.0,-999,-99.99,,,-99.99,,2013-02-02 12:53:00,
2013-02-02 05:22:00,50.0,-99.9,-100.00,North,2,8.0,-999.0,-999,-99.99,,,-99.99,,2013-02-02 13:22:00,
2013-02-02 05:33:00,50.0,-99.9,-100.00,North,2,8.0,-999.0,-999,-99.99,,,-99.99,,2013-02-02 13:33:00,
2013-02-02 05:43:00,50.0,-99.9,-100.00,North,2,8.0,-999.0,-999,-99.99,,,-99.99,,2013-02-02 13:43:00,
2013-02-02 05:52:00,50.0,-99.9,-100.00,North,2,8.0,-999.0,-999,-99.99,,,-99.99,,2013-02-02 13:52:00,
2013-02-02 06:22:00,50.0,-99.9,-100.00,North,4,11.0,-999.0,-999,-99.99,,,-99.99,,2013-02-02 14:22:00,
2013-02-02 06:33:00,50.0,-99.9,-100.00,North,4,11.0,-999.0,-999,-99.99,,,-99.99,,2013-02-02 14:33:00,
2013-02-02 06:42:00,50.0,-99.9,-100.00,North,4,11.0,-999.0,-999,-99.99,,,-99.99,,2013-02-02 14:42:00,
2013-02-02 06:52:00,50.0,-99.9,-100.00,North,4,11.0,-999.0,-999,-99.99,,,-99.99,,2013-02-02 14:52:00,
2013-02-02 07:22:00,50.0,-99.9,-100.00,North,1,12.0,-999.0,-999,-99.99,,,-99.99,,2013-02-02 15:22:00,
2013-02-02 07:33:00,50.0,-99.9,-100.00,North,1,12.0,-999.0,-999,-99.99,,,-99.99,,2013-02-02 15:33:00,
2013-02-02 07:42:00,50.0,-99.9,-100.00,North,1,12.0,-999.0,-999,-99.99,,,-99.99,,2013-02-02 15:42:00,
2013-02-02 07:52:00,50.0,-99.9,-100.00,North,1,12.0,-999.0,-999,-99.99,,,-99.99,,2013-02-02 15:52:00,
2013-02-02 08:23:00,51.0,-99.9,-100.00,North,5,10.0,-999.0,-999,-99.99,,,-99.99,,2013-02-02 16:23:00,
2013-02-02 08:32:00,51.0,-99.9,-100.00,North,5,10.0,-999.0,-999,-99.99,,,-99.99,,2013-02-02 16:32:00,
2013-02-02 08:43:00,51.0,-99.9,-100.00,North,5,10.0,-999.0,-999,-99.99,,,-99.99,,2013-02-02 16:43:00,
2013-02-02 08:52:00,51.0,-99.9,-100.00,North,5,10.0,-999.0,-999,-99.99,,,-99.99,,2013-02-02 16:52:00,
2013-02-02 09:23:00,51.0,-99.9,-100.00,North,2,12.0,-999.0,-999,-99.99,,,-99.99,,2013-02-02 17:23:00,
2013-02-02 09:33:00,51.0,-99.9,-100.00,North,2,12.0,-999.0,-999,-99.99,,,-99.99,,2013-02-02 17:33:00,
2013-02-02 09:42:00,51.0,-99.9,-100.00,North,2,12.0,-999.0,-999,-99.99,,,-99.99,,2013-02-02 17:42:00,
2013-02-02 09:53:00,51.0,-99.9,-100.00,North,2,12.0,-999.0,-999,-99.99,,,-99.99,,2013-02-02 17:53:00,
2013-02-02 10:22:00,53.0,-99.9,-100.00,North,9,11.0,-999.0,-999,-99.99,,,-99.99,,2013-02-02 18:22:00,
2013-02-02 10:32:00,53.0,-99.9,-100.00,North,9,11.0,-999.0,-999,-99.99,,,-99.99,,2013-02-02 18:32:00,
2013-02-02 10:42:00,53.0,-99.9,-100.00,North,9,11.0,-999.0,-999,-99.99,,,-99.99,,2013-02-02 18:42:00,
2013-02-02 10:52:00,53.0,-99.9,-100.00,North,9,11.0,-999.0,-999,-99.99,,,-99.99,,2013-02-02 18:52:00,
2013-02-02 11:22:00,53.0,-99.9,-100.00,North,360,13.0,-999.0,-999,-99.99,,,-99.99,,2013-02-02 19:22:00,
2013-02-02 11:33:00,53.0,-99.9,-100.00,North,360,13.0,-999.0,-999,-99.99,,,-99.99,,2013-02-02 19:33:00,
2013-02-02 11:42:00,53.0,-99.9,-100.00,North,360,13.0,-999.0,-999,-99.99,,,-99.99,,2013-02-02 19:42:00,
2013-02-02 11:52:00,53.0,-99.9,-100.00,North,360,13.0,-999.0,-999,-99.99,,,-99.99,,2013-02-02 19:52:00,
2013-02-02 12:22:00,54.0,-99.9,-100.00,North,3,13.0,-999.0,-999,-99.99,,,-99.99,,2013-02-02 20:22:00,
2013-02-02 12:32:00,54.0,-99.9,-100.00,North,3,13.0,-999.0,-999,-99.99,,,-99.99,,2013-02-02 20:32:00,
2013-02-02 12:42:00,54.0,-99.9,-100.00,North,3,13.0,-999.0,-999,-99.99,,,-99.99,,2013-02-02 20:42:00,
2013-02-02 12:52:00,54.0,-99.9,-100.00,North,3,13.0,-999.0,-999,-99.99,,,-99.99,,2013-02-02 20:52:00,
2013-02-02 13:22:00,55.0,-99.9,-100.00,North,4,13.0,-999.0,-999,-99.99,,,-99.99,,2013-02-02 21:22:00,
2013-02-02 13:32:00,55.0,-99.9,-100.00,North,4,13.0,-999.0,-999,-99.99,,,-99.99,,2013-02-02 21:32:00,
2013-02-02 13:43:00,55.0,-99.9,-100.00,North,4,13.0,-999.0,-999,-99.99,,,-99.99,,2013-02-02 21:43:00,
2013-02-02 13:52:00,55.0,-99.9,-100.00,North,4,13.0,-999.0,-999,-99.99,,,-99.99,,2013-02-02 21:52:00,
2013-02-02 14:22:00,54.0,-99.9,-100.00,NNW,348,10.0,-999.0,-999,-99.99,,,-99.99,,2013-02-02 22:22:00,
2013-02-02 14:32:00,54.0,-99.9,-100.00,NNW,348,10.0,-999.0,-999,-99.99,,,-99.99,,2013-02-02 22:32:00,
2013-02-02 14:42:00,54.0,-99.9,-100.00,NNW,348,10.0,-999.0,-999,-99.99,,,-99.99,,2013-02-02 22:42:00,
2013-02-02 14:52:00,54.0,-99.9,-100.00,NNW,348,10.0,-999.0,-999,-99.99,,,-99.99,,2013-02-02 22:52:00,
2013-02-02 15:22:00,54.0,-99.9,-100.00,North,355,12.0,-999.0,-999,-99.99,,,-99.99,,2013-02-02 23:22:00,
2013-02-02 15:33:00,54.0,-99.9,-100.00,North,355,12.0,-999.0,-999,-99.99,,,-99.99,,2013-02-02 23:33:00,
2013-02-02 15:42:00,54.0,-99.9,-100.00,North,355,12.0,-999.0,-999,-99.99,,,-99.99,,2013-02-02 23:42:00,
2013-02-02 15:52:00,54.0,-99.9,-100.00,North,355,12.0,-999.0,-999,-99.99,,,-99.99,,2013-02-02 23:52:00,
2013-02-02 16:22:00,54.0,-99.9,-100.00,North,7,13.0,-999.0,-999,-99.99,,,-99.99,,2013-02-03 00:22:00,
2013-02-02 16:32:00,54.0,-99.9,-100.00,North,7,13.0,-999.0,-999,-99.99,,,-99.99,,2013-02-03 00:32:00,
2013-02-02 16:42:00,54.0,-99.9,-100.00,North,7,13.0,-999.0,-999,-99.99,,,-99.99,,2013-02-03 00:42:00,
2013-02-02 16:52:00,54.0,-99.9,-100.00,North,7,13.0,-999.0,-999,-99.99,,,-99.99,,2013-02-03 00:52:00,
2013-02-02 17:22:00,53.0,-99.9,-100.00,NE,34,14.0,-999.0,-999,-99.99,,,-99.99,,2013-02-03 01:22:00,
2013-02-02 17:32:00,53.0,-99.9,-100.00,NE,34,14.0,-999.0,-999,-99.99,,,-99.99,,2013-02-03 01:32:00,
2013-02-02 17:42:00,53.0,-99.9,-100.00,NE,34,14.0,-999.0,-999,-99.99,,,-99.99,,2013-02-03 01:42:00,
2013-02-02 17:52:00,53.0,-99.9,-100.00,NE,34,14.0,-999.0,-999,-99.99,,,-99.99,,2013-02-03 01:52:00,
2013-02-02 18:22:00,56.0,-99.9,-100.00,North,9,9.0,-999.0,-999,-99.99,,,-99.99,,2013-02-03 02:22:00,
2013-02-02 18:32:00,56.0,-99.9,-100.00,North,9,9.0,-999.0,-999,-99.99,,,-99.99,,2013-02-03 02:32:00,
2013-02-02 18:42:00,56.0,-99.9,-100.00,North,9,9.0,-999.0,-999,-99.99,,,-99.99,,2013-02-03 02:42:00,
2013-02-02 18:53:00,56.0,-99.9,-100.00,North,9,9.0,-999.0,-999,-99.99,,,-99.99,,2013-02-03 02:53:00,
2013-02-02 19:22:00,57.0,-99.9,-100.00,North,6,10.0,-999.0,-999,-99.99,,,-99.99,,2013-02-03 03:22:00,
2013-02-02 19:32:00,57.0,-99.9,-100.00,North,6,10.0,-999.0,-999,-99.99,,,-99.99,,2013-02-03 03:32:00,
2013-02-02 19:42:00,57.0,-99.9,-100.00,North,6,10.0,-999.0,-999,-99.99,,,-99.99,,2013-02-03 03:42:00,
2013-02-02 19:52:00,57.0,-99.9,-100.00,North,6,10.0,-999.0,-999,-99.99,,,-99.99,,2013-02-03 03:52:00,
2013-02-02 20:22:00,52.0,-99.9,-100.00,NNW,330,6.0,-999.0,-999,-99.99,,,-99.99,,2013-02-03 04:22:00,
2013-02-02 20:32:00,52.0,-99.9,-100.00,NNW,330,6.0,-999.0,-999,-99.99,,,-99.99,,2013-02-03 04:32:00,
2013-02-02 20:42:00,52.0,-99.9,-100.00,NNW,330,6.0,-999.0,-999,-99.99,,,-99.99,,2013-02-03 04:42:00,
2013-02-02 20:52:00,52.0,-99.9,-100.00,NNW,330,6.0,-999.0,-999,-99.99,,,-99.99,,2013-02-03 04:52:00,
2013-02-02 21:23:00,52.0,-99.9,-100.00,North,5,5.0,-999.0,-999,-99.99,,,-99.99,,2013-02-03 05:23:00,
2013-02-02 21:32:00,52.0,-99.9,-100.00,North,5,5.0,-999.0,-999,-99.99,,,-99.99,,2013-02-03 05:32:00,
2013-02-02 21:42:00,52.0,-99.9,-100.00,North,5,5.0,-999.0,-999,-99.99,,,-99.99,,2013-02-03 05:42:00,
2013-02-02 21:53:00,52.0,-99.9,-100.00,North,5,5.0,-999.0,-999,-99.99,,,-99.99,,2013-02-03 05:53:00,
2013-02-02 22:22:00,52.0,-99.9,-100.00,NNE,15,6.0,-999.0,-999,-99.99,,,-99.99,,2013-02-03 06:22:00,
2013-02-02 22:32:00,52.0,-99.9,-100.00,NNE,15,6.0,-999.0,-999,-99.99,,,-99.99,,2013-02-03 06:32:00,
2013-02-02 22:42:00,52.0,-99.9,-100.00,NNE,15,6.0,-999.0,-999,-99.99,,,-99.99,,2013-02-03 06:42:00,
2013-02-02 22:52:00,52.0,-99.9,-100.00,NNE,15,6.0,-999.0,-999,-99.99,,,-99.99,,2013-02-03 06:52:00,
2013-02-02 23:22:00,52.0,-99.9,-100.00,North,7,7.0,-999.0,-999,-99.99,,,-99.99,,2013-02-03 07:22:00,
2013-02-02 23:32:00,52.0,-99.9,-100.00,North,7,7.0,-999.0,-999,-99.99,,,-99.99,,2013-02-03 07:32:00,
2013-02-02 23:42:00,52.0,-99.9,-100.00,North,7,7.0,-999.0,-999,-99.99,,,-99.99,,2013-02-03 07:42:00,
2013-02-02 23:53:00,52.0,-99.9,-100.00,North,7,7.0,-999.0,-999,-99.99,,,-99.99,,2013-02-03 07:53:00,